Location: Central Falls
(41.8900°N, 71.3929°W)
Time: 17:02:04
(UTC+00:00)

Vanguard 1 Rocket - Pass Details

Date: 06 December 2023
Orbit: 654 x 4218 km, 34.3° (Epoch: 25 February)

Event Time Altitude Azimuth Distance (km) Brightness Sun altitude
Rises 07:55:37 0° 220° (SW) 8,440 - -44.4°
Reaches altitude 10° 08:02:08 10° 214° (SW) 7,398 - -43.2°
Exits shadow 08:07:07 18° 208° (SSW) 6,584 11.4 -42.3°
Maximum altitude 08:24:15 43° 153° (SSE) 4,259 10.7 -39.1°
Drops below altitude 10° 08:38:30 10° 89° (E) 4,953 11.9 -36.4°
Sets 08:41:47 0° 83° (E) 5,559 12.4 -35.8°
